Weather History for Erie, CO

Change the Weather History Date:

Sunday, September 9, 2012

  Actual Average (KBJC) Record (KBJC)
Temperature  
Mean Temperature 65 °F -  
Max Temperature 89 °F 78 °F 92 °F (1988)
Min Temperature 41 °F 54 °F 37 °F (2001)
Growing Degree Days 15 (Base 50)    
Moisture  
Dew Point 29 °F    
Average Humidity 33    
Maximum Humidity 77    
Minimum Humidity 8    
Precipitation  
Precipitation 0.00 in - - ()
Sea Level Pressure  
Sea Level Pressure 30.19 in    
Wind  
Wind Speed 2 mph (SSE)    
Max Wind Speed 15 mph    
Max Gust Speed 21 mph    
Visibility 10 miles    
Events      
Averages and records for this station are not official NWS values.
T = Trace of Precipitation, MM = Missing Value Source: NWS Daily Summary

Daily Weather History Graph

Daily Weather History Graph

Search for Another Location

Airport:

Trip Planner

Search our weather history database for the weather conditions in past years. The results will help you decide how hot, cold, wet, or windy it might be!

Date:

Astronomy

Sep. 09, 2012 Rise Set
Actual Time 6:36 AM MDT 7:17 PM MDT
Civil Twilight 6:08 AM MDT 7:45 PM MDT
Nautical Twilight 5:36 AM MDT 8:17 PM MDT
Astronomical Twilight 5:02 AM MDT 8:50 PM MDT
Moon 12:07 AM MDT (9/9) 3:05 PM MDT (9/9)
Length of Visible Light 13h 36m
Length of Day
12h 41m
Last Quarter, 39% of the Moon is Illuminated
Sep 9
Last Quarter
Sep 15
New
Sep 22
First Quarter
Sep 29
Full
Oct 8
Last Quarter

Hourly Weather History & Observations

Time (MDT) Temp. Windchill Dew Point Humidity Pressure Visibility Wind Dir Wind Speed Gust Speed Precip Events Conditions
12:14 AM 50.2 °F - 35.8 °F 58% 30.32 in 10.0 mi Calm Calm - N/A   Clear
12:34 AM 49.3 °F - 36.7 °F 62% 30.31 in 10.0 mi Calm Calm - N/A   Clear
12:54 AM 48.4 °F - 32.4 °F 54% 30.30 in 10.0 mi Calm Calm - N/A   Clear
1:14 AM 50.0 °F - 33.1 °F 52% 30.30 in 10.0 mi Calm Calm - N/A   Clear
1:34 AM 47.5 °F - 32.9 °F 57% 30.30 in 10.0 mi Calm Calm - N/A   Clear
1:54 AM 47.7 °F - 33.8 °F 59% 30.30 in 10.0 mi Calm Calm - N/A   Clear
2:14 AM 46.6 °F - 35.6 °F 66% 30.30 in 10.0 mi Calm Calm - N/A   Clear
2:34 AM 45.9 °F 44.6 °F 33.1 °F 61% 30.30 in 10.0 mi SW 3.5 mph - N/A   Clear
2:54 AM 46.2 °F 45.0 °F 33.1 °F 60% 30.29 in 10.0 mi SW 3.5 mph - N/A   Clear
3:14 AM 45.0 °F - 34.0 °F 65% 30.29 in 10.0 mi Calm Calm - N/A   Clear
3:34 AM 45.3 °F - 34.2 °F 65% 30.29 in 10.0 mi Calm Calm - N/A   Clear
3:54 AM 45.9 °F - 34.0 °F 63% 30.29 in 10.0 mi Calm Calm - N/A   Clear
4:14 AM 45.1 °F - 33.6 °F 64% 30.29 in 10.0 mi Calm Calm - N/A   Clear
4:34 AM 45.7 °F - 33.4 °F 62% 30.29 in 10.0 mi Calm Calm - N/A   Clear
4:54 AM 44.4 °F - 33.8 °F 66% 30.29 in 10.0 mi Calm Calm - N/A   Clear
5:14 AM 45.3 °F 44.0 °F 34.0 °F 65% 30.29 in 10.0 mi SW 3.5 mph - N/A   Clear
5:34 AM 43.9 °F - 34.3 °F 69% 30.29 in 10.0 mi Calm Calm - N/A   Clear
5:54 AM 44.8 °F - 33.3 °F 64% 30.29 in 10.0 mi Calm Calm - N/A   Clear
6:14 AM 43.0 °F 41.3 °F 33.4 °F 69% 30.30 in 10.0 mi SSW 3.5 mph - N/A   Clear
6:34 AM 41.7 °F - 33.4 °F 72% 30.30 in 10.0 mi Calm Calm - N/A   Clear
6:54 AM 41.4 °F - 34.5 °F 77% 30.30 in 10.0 mi Calm Calm - N/A   Clear
7:34 AM 46.8 °F - 36.0 °F 66% 30.30 in 10.0 mi Calm Calm - N/A   Clear
7:54 AM 51.1 °F - 36.0 °F 56% 30.30 in 10.0 mi Calm Calm - N/A   Clear
8:14 AM 55.0 °F - 35.8 °F 48% 30.29 in 10.0 mi Calm Calm - N/A   Clear
8:34 AM 58.6 °F - 34.0 °F 40% 30.29 in 10.0 mi Calm Calm - N/A   Clear
8:54 AM 61.3 °F - 31.5 °F 32% 30.29 in 10.0 mi Calm Calm - N/A   Clear
9:34 AM 65.5 °F - 30.9 °F 27% 30.29 in 10.0 mi Calm Calm - N/A   Clear
10:14 AM 70.7 °F - 30.0 °F 22% 30.28 in 10.0 mi East 3.5 mph - N/A   Clear
10:34 AM 72.1 °F - 31.6 °F 22% 30.27 in 10.0 mi East 5.8 mph - N/A   Clear
10:54 AM 72.3 °F - 31.6 °F 22% 30.27 in 10.0 mi Calm Calm - N/A   Clear
11:14 AM 74.7 °F - 31.3 °F 20% 30.26 in 10.0 mi Calm Calm - N/A   Clear
11:34 AM 77.0 °F - 29.7 °F 18% 30.25 in 10.0 mi South 5.8 mph - N/A   Clear
11:54 AM 77.9 °F - 30.2 °F 17% 30.23 in 10.0 mi South 4.6 mph - N/A   Clear
12:14 PM 79.7 °F - 30.0 °F 16% 30.22 in 10.0 mi SE 6.9 mph - N/A   Clear
12:34 PM 81.5 °F - 29.7 °F 15% 30.21 in 7.0 mi SSW 5.8 mph - N/A   Clear
12:54 PM 82.2 °F - 29.8 °F 15% 30.20 in 10.0 mi South 4.6 mph - N/A   Clear
1:14 PM 83.8 °F - 30.6 °F 15% 30.19 in 10.0 mi SSE 4.6 mph - N/A   Clear
1:34 PM 84.7 °F - 27.3 °F 12% 30.17 in 10.0 mi SSE 4.6 mph - N/A   Clear
1:54 PM 86.0 °F - 27.7 °F 12% 30.16 in 10.0 mi SSE 4.6 mph - N/A   Clear
2:14 PM 86.9 °F - 26.6 °F 11% 30.15 in 10.0 mi SE 4.6 mph - N/A   Clear
2:34 PM 87.4 °F - 25.3 °F 10% 30.14 in 10.0 mi SE 3.5 mph - N/A   Clear
2:54 PM 88.7 °F - 25.7 °F 10% 30.13 in 10.0 mi ESE 8.1 mph - N/A   Clear
3:14 PM 88.0 °F - 24.4 °F 10% 30.12 in 10.0 mi East 8.1 mph - N/A   Clear
3:34 PM 88.9 °F - 22.6 °F 9% 30.11 in 10.0 mi Calm Calm - N/A   Clear
3:54 PM 88.2 °F - 21.0 °F 9% 30.10 in 10.0 mi Calm Calm - N/A   Clear
4:14 PM 88.9 °F - 20.8 °F 8% 30.09 in 10.0 mi Calm Calm - N/A   Clear
4:34 PM 89.6 °F - 20.8 °F 8% 30.09 in 10.0 mi East 6.9 mph 16.1 mph N/A   Clear
4:54 PM 88.9 °F - 19.6 °F 8% 30.08 in 10.0 mi SE 5.8 mph - N/A   Clear
5:14 PM 88.7 °F - 19.2 °F 8% 30.08 in 10.0 mi Calm Calm - N/A   Clear
5:34 PM 88.5 °F - 19.4 °F 8% 30.07 in 10.0 mi South 3.5 mph - N/A   Clear
5:54 PM 88.0 °F - 18.1 °F 8% 30.07 in 10.0 mi SE 5.8 mph - N/A   Clear
6:14 PM 87.3 °F - 21.6 °F 9% 30.06 in 10.0 mi SE 12.7 mph - N/A   Clear
6:34 PM 85.3 °F - 25.2 °F 11% 30.06 in 10.0 mi SSE 15.0 mph 20.7 mph N/A   Clear
6:54 PM 83.1 °F - 25.5 °F 12% 30.06 in 10.0 mi SSE 10.4 mph - N/A   Clear
7:14 PM 80.6 °F - 24.3 °F 13% 30.06 in 10.0 mi SSE 11.5 mph - N/A   Clear
7:34 PM 78.8 °F - 23.2 °F 13% 30.06 in 10.0 mi SSE 12.7 mph - N/A   Clear
7:54 PM 77.9 °F - 22.3 °F 13% 30.06 in 10.0 mi SSE 10.4 mph - N/A   Clear
8:14 PM 76.1 °F - 21.7 °F 13% 30.06 in 10.0 mi SSE 10.4 mph - N/A   Clear
8:34 PM 74.8 °F - 23.0 °F 14% 30.07 in 10.0 mi South 6.9 mph - N/A   Clear
8:54 PM 71.6 °F - 24.6 °F 17% 30.07 in 10.0 mi SSW 4.6 mph - N/A   Clear
9:14 PM 69.1 °F - 23.9 °F 18% 30.07 in 10.0 mi Calm Calm - N/A   Clear
9:34 PM 68.7 °F - 23.7 °F 18% 30.07 in 10.0 mi South 5.8 mph - N/A   Clear
9:54 PM 68.7 °F - 25.3 °F 20% 30.07 in 10.0 mi SSW 4.6 mph - N/A   Clear
10:14 PM 66.7 °F - 27.5 °F 23% 30.07 in 10.0 mi SW 4.6 mph - N/A   Clear
10:34 PM 64.8 °F - 29.5 °F 27% 30.07 in 10.0 mi WSW 4.6 mph - N/A   Clear
10:54 PM 64.0 °F - 30.6 °F 28% 30.07 in 10.0 mi SSW 5.8 mph - N/A   Clear
11:14 PM 61.9 °F - 30.6 °F 31% 30.07 in 10.0 mi Calm Calm - N/A   Clear
11:34 PM 61.9 °F - 29.7 °F 30% 30.07 in 10.0 mi Calm Calm - N/A   Clear
11:54 PM 59.9 °F - 30.2 °F 33% 30.07 in 10.0 mi Calm Calm - N/A   Clear